Regional Weather Roundup
Issued by NWS

Home | Current Version | Previous Version | Graphics & Text | Print | Product List | Glossary On
Versions: 1 2 3 4 5 6 7 8 9 10 11 12 13 14 15 16 17 18 19 20 21 22 23 24 25 26 27 28 29 30 31 32 33 34 35 36 37 38 39 40 41 42 43 44 45 46 47 48 49 50
000
ASUS43 KOAX 230810
RWRNE

WEATHER ROUNDUP FOR NEBRASKA
NATIONAL WEATHER SERVICE OMAHA NE
300 AM CDT FRI JUN 23 2017

NOTES: SATELLITE DATA IS BEING USED TO AUGMENT CLOUD COVER ABOVE
       12000 FEET.
       "FAIR" INDICATES FEW OR NO CLOUDS BELOW 12,000 FEET WITH NO
       SIGNIFICANT WEATHER AND/OR OBSTRUCTIONS TO VISIBILITY.

  * THESE STATIONS DO NOT REPORT WEATHER SUCH AS RAIN...SNOW OR FOG.

NEZ001>004-019>022-054>056-230900-
NEBRASKA PANHANDLE

CITY           SKY/WX    TMP DP  RH WIND       PRES   REMARKS
SCOTTSBLUFF    CLOUDY    63  36  36 NE15      30.12R
ALLIANCE       CLOUDY    56  43  61 NE7       30.11R
CHADRON        LGT RAIN  55  42  61 NE8       30.15R
GORDON         CLOUDY    59  35  40 N22G35    30.11R
KIMBALL        CLOUDY    58  56  94 NE7       30.14R
SIDNEY         LGT RAIN  59  55  87 N6        30.12R
$$

NEZ057>060-069>072-079>082-230900-
SOUTHWEST NEBRASKA

CITY           SKY/WX    TMP DP  RH WIND       PRES   REMARKS
NORTH PLATTE   CLOUDY    66  49  54 CALM      29.98S
IMPERIAL       CLOUDY    64  46  52 E10       29.99F
LEXINGTON      MOCLDY    62  52  69 CALM      29.93F
MCCOOK         CLOUDY    63  50  62 N5        29.96R
OGALLALA       CLOUDY    64  51  62 CALM      30.04R
$$

NEZ005>010-023>029-035>040-094-230900-
NORTH CENTRAL NEBRASKA

CITY           SKY/WX    TMP DP  RH WIND       PRES   REMARKS
VALENTINE      CLOUDY    64  35  34 N17G26    30.03R
AINSWORTH      CLOUDY    58  48  68 N7        30.01R
BROKEN BOW     CLOUDY    62  50  64 N5        29.94F
O`NEILL        CLOUDY    61  51  71 NW8       29.93F
ORD            CLOUDY    62  48  60 N7        29.89F
THEDFORD       CLOUDY    61  48  62 N12G18    30.02R
$$

NEZ041-046>049-061>064-073>077-083>087-230900-
SOUTH CENTRAL NEBRASKA

CITY           SKY/WX    TMP DP  RH WIND       PRES   REMARKS
GRAND ISLAND   LGT RAIN  63  57  81 N7        29.89S
AURORA         PTCLDY    64  57  79 N12       29.87S
HASTINGS       PTCLDY    66  54  65 N13       29.90R
HEBRON         CLOUDY    72  61  68 NE17G24   29.82S
HOLDREGE       MOCLDY    64  51  62 N8        29.93R
KEARNEY *      CLOUDY    64  52  63 N12       29.92S
YORK           MOCLDY    64  59  82 N9        29.86S
$$

NEZ011>018-030>034-042>045-230900-
NORTHEAST NEBRASKA

CITY           SKY/WX    TMP DP  RH WIND       PRES   REMARKS
NORFOLK        CLEAR     56  51  84 NW7       29.88R
ALBION         CLOUDY    55  50  82 N3        29.90F
BLAIR          CLOUDY    68  59  73 N8        29.81F
FREMONT        PTCLDY    67  55  66 CALM      29.83F
TEKAMAH        MOCLDY    62  52  69 N7        29.82F
WAYNE          CLEAR     53  52  97 CALM      29.87S
$$

NEZ050>053-065>068-078-088>093-230900-
SOUTHEAST NEBRASKA

CITY           SKY/WX    TMP DP  RH WIND       PRES   REMARKS
LINCOLN        MOCLDY    69  61  75 N9        29.82F
OMAHA EPPLEY   CLOUDY    70  61  73 N12       29.80F
BEATRICE       CLOUDY    71  64  76 N16G23    29.80F
FALLS CITY     LGT RAIN  71  67  87 N17G30    29.74F
NEBRASKA CITY  CLOUDY    68  68 100 N15       29.79F
PLATTSMOUTH    CLOUDY    69  61  77 N8        29.81F
$$

NEZ044-045-051>053-067-230900-
OMAHA AREA

CITY           SKY/WX    TMP DP  RH WIND       PRES   REMARKS
OMAHA EPPLEY   CLOUDY    70  61  73 N12       29.80F
BLAIR          CLOUDY    68  59  73 N8        29.81F
FREMONT        PTCLDY    67  55  66 CALM      29.83F
MILLARD        CLOUDY    72  63  72 N6        29.81F
OFFUTT AFB     MOCLDY    72  61  68 N13       29.86F
PLATTSMOUTH    CLOUDY    69  61  77 N8        29.81F
WAHOO          FAIR      66  57  72 N5        29.81F
$$




USA.gov is the U.S. government's official web portal to all federal, state and local government web resources and services.